(220823) = 2004 TY310 = 1999 XH198

Discovered at Socorro on 2004-10-10 by LINEAR.

Orbit

Orbit type: Main Belt

Note: WebGL enabled browser required.

epoch2023-02-25.0
epoch JD2460000.5
perihelion date2020-03-25.77892
perihelion JD2458934.27892
argument of perihelion (°)36.26097
ascending node (°)327.70415
inclination (°)9.32559
eccentricity0.1223782
perihelion distance (AU)2.6704060
Tisserand w.r.t. Jupiter3.2
ΔV w.r.t. Earth (km/sec)10.6
semimajor axis (AU)3.0427754
mean anomaly (°)197.99137
mean daily motion (°/day)0.18569450
aphelion distance (AU)3.415
period (years)5.31
P-vector [x]0.99342971
P-vector [y]0.01925621
P-vector [z]0.11281226
Q-vector [x]-0.07484308
Q-vector [y]0.85504675
Q-vector [z]0.51312140
absolute magnitude15.35
phase slope0.15
uncertainty0
referenceMPO 745323
observations used542
oppositions14
arc length (days)8565
first opposition used1999
last opposition used2023
residual rms (arc-secs)0.73
perturbers coarse indicatorM-v
perturbers precise indicator003Ek
first observation date used1999-12-12.0
last observation date used2023-05-25.0
computer nameMPCLINUX
JD of orbit computation2456937.189612
perihelion JD uncertainty (days)1.2975E-04
argument of perihelion uncertainty (°)3.7905E-05
ascending node uncertainty (°)2.7618E-05
inclination uncertainty (°)7.6384E-06
eccentricity uncertainty 1.3099E-07
perihelion distance uncertainty (AU)4.3185E-07
Minimum Orbit Intersection Distances (in AU)
for orbit epoch: 2460000.5, reference: E2023-KF3
Mercury2.31067
Venus1.9549
Earth1.67205
Mars1.29449
Jupiter2.04095
Saturn5.93789
Uranus15.0532
Neptune27.1443

Observations

549 total observations over interval: 1999 12 12.36325 – 2023 05 25.251081
These data are available for download (format description).

Date (UT) J2000 RA J2000 Dec Magn Location Ref
1999 12 12.36325 05 11 48.12 +36 08 56.2 20.0   704 – Lincoln Laboratory ETS, New Mexico MPS 9129
1999 12 12.38112 05 11 46.86 +36 08 54.2 19.5   704 – Lincoln Laboratory ETS, New Mexico MPS 9129
1999 12 12.41441 05 11 44.85 +36 08 47.7 19.7   704 – Lincoln Laboratory ETS, New Mexico MPS 9129
1999 12 15.25351 05 08 47.10 +36 01 22.5 19.4   704 – Lincoln Laboratory ETS, New Mexico MPS 9129
1999 12 15.27317 05 08 45.86 +36 01 18.8 19.3   704 – Lincoln Laboratory ETS, New Mexico MPS 9129
1999 12 15.30865 05 08 43.59 +36 01 14.4 19.6   704 – Lincoln Laboratory ETS, New Mexico MPS 9129
2004 08 26.40074 03 17 01.69 +28 12 52.7 20.3   704 – Lincoln Laboratory ETS, New Mexico MPS 119331
2004 08 26.41104 03 17 02.10 +28 12 57.5 20.5   704 – Lincoln Laboratory ETS, New Mexico MPS 119331
2004 08 26.42128 03 17 02.45 +28 13 01.8 20.4   704 – Lincoln Laboratory ETS, New Mexico MPS 119331
2004 08 26.43150 03 17 02.85 +28 13 06.3 20.3   704 – Lincoln Laboratory ETS, New Mexico MPS 119331
2004 09 18.36336 03 26 35.03 +30 33 54.0 20.3   704 – Lincoln Laboratory ETS, New Mexico MPS 119331
2004 09 18.37532 03 26 35.19 +30 33 58.0 19.6   704 – Lincoln Laboratory ETS, New Mexico MPS 119331
2004 09 18.41123 03 26 35.37 +30 34 08.3 20.7   704 – Lincoln Laboratory ETS, New Mexico MPS 119331
2004 10 08.37143 03 23 12.58 +31 56 37.3 20.6   704 – Lincoln Laboratory ETS, New Mexico MPS 119331
2004 10 08.38526 03 23 12.13 +31 56 38.9 20.2   704 – Lincoln Laboratory ETS, New Mexico MPS 119331
2004 10 08.40032 03 23 11.57 +31 56 41.1 19.6   704 – Lincoln Laboratory ETS, New Mexico MPS 119331
2004 10 10.30879 03 22 16.23 +32 01 44.8 19.1 C 704 – Lincoln Laboratory ETS, New Mexico MPS 290210
2004 10 10.31971 03 22 15.88 +32 01 47.2 19.6   704 – Lincoln Laboratory ETS, New Mexico MPS 118691
2004 10 10.33063 03 22 15.59 +32 01 49.0 19.6   704 – Lincoln Laboratory ETS, New Mexico MPS 118691
2004 10 10.34156 03 22 15.21 +32 01 50.3 19.7   704 – Lincoln Laboratory ETS, New Mexico MPS 118691
2004 10 10.35248 03 22 14.88 +32 01 53.4 19.9   704 – Lincoln Laboratory ETS, New Mexico MPS 118691
2004 10 15.30870 03 19 22.89 +32 12 12.8 19.5   704 – Lincoln Laboratory ETS, New Mexico MPS 118691
2004 10 15.31977 03 19 22.42 +32 12 13.4 19.6   704 – Lincoln Laboratory ETS, New Mexico MPS 118691
2004 10 15.33084 03 19 21.96 +32 12 15.1 19.5   704 – Lincoln Laboratory ETS, New Mexico MPS 118691
2004 10 15.34192 03 19 21.52 +32 12 16.0 19.7   704 – Lincoln Laboratory ETS, New Mexico MPS 118691
2004 10 15.35301 03 19 20.99 +32 12 17.2 19.7   704 – Lincoln Laboratory ETS, New Mexico MPS 118691
2004 10 24.31205 03 12 41.23 +32 19 40.9 19.2 C 704 – Lincoln Laboratory ETS, New Mexico MPS 290210
2004 10 24.33581 03 12 40.03 +32 19 41.3 19.0 C 704 – Lincoln Laboratory ETS, New Mexico MPS 290210
2004 10 24.35958 03 12 38.81 +32 19 40.6 18.9 C 704 – Lincoln Laboratory ETS, New Mexico MPS 290210
2004 11 03.27388 03 03 42.72 +32 09 50.0 18.8 R 699 – Lowell Observatory-LONEOS MPS 118691
2004 11 03.29023 03 03 41.72 +32 09 48.1   699 – Lowell Observatory-LONEOS MPS 118691
2004 11 03.30658 03 03 40.59 +32 09 46.0   699 – Lowell Observatory-LONEOS MPS 118691
2004 11 03.32295 03 03 39.73 +32 09 43.5   699 – Lowell Observatory-LONEOS MPS 118691
2004 11 04.25466 03 02 46.45 +32 07 48.5 18.8   704 – Lincoln Laboratory ETS, New Mexico MPS 118691
2004 11 04.26661 03 02 45.70 +32 07 46.9 19.0   704 – Lincoln Laboratory ETS, New Mexico MPS 118691
2004 11 04.27855 03 02 45.01 +32 07 45.8 18.8   704 – Lincoln Laboratory ETS, New Mexico MPS 118691
2004 11 04.29050 03 02 44.30 +32 07 43.8 18.8   704 – Lincoln Laboratory ETS, New Mexico MPS 118691
2004 11 04.30245 03 02 43.54 +32 07 43.0 18.8   704 – Lincoln Laboratory ETS, New Mexico MPS 118691
2004 11 19.25572 02 48 33.28 +31 16 36.0 18.6 C 704 – Lincoln Laboratory ETS, New Mexico MPS 291477
2004 11 19.26949 02 48 32.45 +31 16 32.9 18.7 C 704 – Lincoln Laboratory ETS, New Mexico MPS 291477
2004 11 19.29629 02 48 30.95 +31 16 27.3 17.4 C 704 – Lincoln Laboratory ETS, New Mexico MPS 291477
2004 11 19.31008 02 48 30.50 +31 16 23.0 18.6 C 704 – Lincoln Laboratory ETS, New Mexico MPS 291477
2004 12 02.22098 02 38 30.08 +30 11 25.4 19.3   704 – Lincoln Laboratory ETS, New Mexico MPS 120602
2004 12 02.23309 02 38 29.58 +30 11 23.4 19.7   704 – Lincoln Laboratory ETS, New Mexico MPS 120602
2004 12 02.24659 02 38 29.14 +30 11 17.8 19.7   704 – Lincoln Laboratory ETS, New Mexico MPS 120602
2004 12 02.25868 02 38 28.61 +30 11 14.1 19.4   704 – Lincoln Laboratory ETS, New Mexico MPS 120602
2006 01 25.23337 09 26 30.75 +18 28 44.5   691 – Steward Observatory, Kitt Peak-Spacewatch MPS 160453
2006 01 25.25071 09 26 29.85 +18 28 46.8   691 – Steward Observatory, Kitt Peak-Spacewatch MPS 160453
2006 01 25.26798 09 26 28.95 +18 28 48.8   691 – Steward Observatory, Kitt Peak-Spacewatch MPS 160453
2006 01 26.32770 09 25 34.35 +18 30 55.1 20.7 V 703 – Catalina Sky Survey MPS 160453
2006 01 26.33397 09 25 34.10 +18 30 57.9 19.9 V 703 – Catalina Sky Survey MPS 160453
2006 01 26.34024 09 25 33.74 +18 30 56.8 20.6 V 703 – Catalina Sky Survey MPS 160453
2006 01 26.34654 09 25 33.38 +18 30 56.5 20.3 V 703 – Catalina Sky Survey MPS 160453
2006 01 28.30834 09 23 51.39 +18 34 51.8 20.1 V G96 – Mt. Lemmon Survey MPS 161815
2006 01 28.31444 09 23 51.07 +18 34 52.5 19.9 V G96 – Mt. Lemmon Survey MPS 161815
2006 01 28.32054 09 23 50.74 +18 34 53.4 19.9 V G96 – Mt. Lemmon Survey MPS 161815
2006 01 28.32664 09 23 50.42 +18 34 53.9 20.0 V G96 – Mt. Lemmon Survey MPS 161815
2006 01 30.22733 09 22 10.07 +18 38 38.1 20.2 V 691 – Steward Observatory, Kitt Peak-Spacewatch MPS 161815
2006 01 30.24462 09 22 09.12 +18 38 40.3 20.1 V 691 – Steward Observatory, Kitt Peak-Spacewatch MPS 161815
2006 01 30.26194 09 22 08.17 +18 38 42.5 20.0 V 691 – Steward Observatory, Kitt Peak-Spacewatch MPS 161815
2006 02 02.32623 09 19 23.77 +18 44 33.3 19.7 V 703 – Catalina Sky Survey MPS 161815
2006 02 02.33366 09 19 23.34 +18 44 34.5 19.8 V 703 – Catalina Sky Survey MPS 161815
2006 02 02.34110 09 19 22.98 +18 44 34.3 20.1 V 703 – Catalina Sky Survey MPS 161815
2006 02 02.34850 09 19 22.47 +18 44 35.6 20.3 V 703 – Catalina Sky Survey MPS 161815
2006 02 03.21250 09 18 36.09 +18 46 12.0   691 – Steward Observatory, Kitt Peak-Spacewatch MPS 162802
2006 02 03.22972 09 18 35.16 +18 46 14.0   691 – Steward Observatory, Kitt Peak-Spacewatch MPS 162802
2006 02 03.24700 09 18 34.19 +18 46 16.1   691 – Steward Observatory, Kitt Peak-Spacewatch MPS 162802
2006 02 07.32843 09 14 53.37 +18 53 26.5 19.8 V G96 – Mt. Lemmon Survey MPS 162802
2006 02 07.33675 09 14 52.90 +18 53 27.2 19.9 V G96 – Mt. Lemmon Survey MPS 162802
2006 02 07.34487 09 14 52.44 +18 53 28.2 19.8 V G96 – Mt. Lemmon Survey MPS 162802
2006 02 07.35294 09 14 52.04 +18 53 28.8 20.0 V G96 – Mt. Lemmon Survey MPS 162802
2006 03 24.16527 08 47 16.00 +18 59 17.7 22.2 V G96 – Mt. Lemmon Survey MPS 167089
2006 03 24.17118 08 47 15.90 +18 59 17.1 21.4 V G96 – Mt. Lemmon Survey MPS 167089
2006 03 24.17716 08 47 15.82 +18 59 16.5 21.0 V G96 – Mt. Lemmon Survey MPS 167089
2006 03 24.18440 08 47 15.72 +18 59 15.7 20.9 V G96 – Mt. Lemmon Survey MPS 167089
2006 04 19.17742 08 49 54.26 +17 56 25.3 21.5 V G96 – Mt. Lemmon Survey MPS 169169
2006 04 19.18574 08 49 54.44 +17 56 23.1 21.3 V G96 – Mt. Lemmon Survey MPS 169169
2006 04 19.19402 08 49 54.58 +17 56 21.9 21.3 V G96 – Mt. Lemmon Survey MPS 169169
2006 04 19.20205 08 49 54.76 +17 56 20.1 20.3 V G96 – Mt. Lemmon Survey MPS 169169
2006 05 24.15132 09 11 39.98 +15 31 13.9 21.2 V G96 – Mt. Lemmon Survey MPS 172028
2006 05 24.15584 09 11 40.23 +15 31 12.5 22.3 V G96 – Mt. Lemmon Survey MPS 172028
2006 05 24.16032 09 11 40.41 +15 31 11.1 21.8 V G96 – Mt. Lemmon Survey MPS 172028
2006 05 24.16480 09 11 40.63 +15 31 10.2 21.1 V G96 – Mt. Lemmon Survey MPS 172028
2009 07 28.44345 01 09 24.46 +13 40 56.5   291 – LPL/Spacewatch II MPS 290210
2009 07 28.44733 01 09 24.58 +13 40 58.2   291 – LPL/Spacewatch II MPS 290210
2009 07 28.45127 01 09 24.69 +13 41 00.1   291 – LPL/Spacewatch II MPS 290210
2009 09 21.35387 01 01 35.50 +17 40 29.4 18.9 V 703 – Catalina Sky Survey MPS 295814
